Change the Weather History Date:

Tuesday, March 3, 2015

  Actual Average Record
Temperature  
Mean Temperature 34 °F 35 °F  
Max Temperature 39 °F 44 °F 78 °F (1974)
Min Temperature 28 °F 27 °F -6 °F (2014)
Degree Days  
Heating Degree Days 31 30  
Month to date heating degree days 109 90  
Since 1 July heating degree days 4815 4606  
Cooling Degree Days 0 0  
Month to date cooling degree days 0 0  
Year to date cooling degree days 0 0  
Moisture  
Dew Point 28 °F    
Average Humidity 75    
Maximum Humidity 92    
Minimum Humidity 58    
Precipitation  
Precipitation 0.08 in 0.08 in 1.67 in (1985)
Month to date precipitation 0.27 0.24  
Year to date precipitation 3.99 3.81  
Snow  
Snow 0.00 in 0.10 in 2.00 in (1982)
Month to date snowfall 2.7 0.4  
Since 1 July snowfall 27.0 21.7  
Snow Depth 3.00 in    
Sea Level Pressure  
Sea Level Pressure 29.87 in    
Wind  
Wind Speed 11 mph (SSW)    
Max Wind Speed 24 mph    
Max Gust Speed 33 mph    
Visibility 5 miles    
Events Rain , Snow    
T = Trace of Precipitation, MM = Missing Value Source: NWS Daily Summary

Daily Weather History Graph

Daily Weather History Graph

Search for Another Location

Airport or City:

Trip Planner

Search our weather history database for the weather conditions in past years. The results will help you decide how hot, cold, wet, or windy it might be!

Date:

Astronomy

Mar. 03, 2015 Rise Set
Actual Time 6:29 AM CST 5:52 PM CST
Civil Twilight 6:02 AM CST 6:19 PM CST
Nautical Twilight 5:30 AM CST 6:51 PM CST
Astronomical Twilight 4:59 AM CST 7:22 PM CST
Moon 4:15 PM CST (3/3) 5:10 AM CST (3/3)
Length of Visible Light 12h 16m
Length of Day
11h 22m
Waxing Gibbous, 96% of the Moon is Illuminated
Mar 3
Waxing Gibbous
Mar 5
Full
Mar 13
Last Quarter
Mar 20
New
Mar 27
First Quarter

Hourly Weather History & Observations

Time (CST) Temp. Windchill Dew Point Humidity Pressure Visibility Wind Dir Wind Speed Gust Speed Precip Events Conditions
12:29 AM 28.4 °F 19.1 °F 17.6 °F 64% 30.15 in 7.0 mi SE 10.4 mph - N/A Rain Light Freezing Rain
12:54 AM 28.0 °F 20.0 °F 19.0 °F 69% 30.17 in 10.0 mi SSE 8.1 mph - 0.01 in   Overcast
1:54 AM 28.0 °F 20.8 °F 19.9 °F 72% 30.13 in 9.0 mi SE 6.9 mph - 0.00 in   Overcast
2:23 AM 28.0 °F 19.3 °F 21.0 °F 75% 30.07 in 5.0 mi SE 9.2 mph - 0.01 in Rain Light Freezing Rain
2:54 AM 28.9 °F 21.1 °F 23.0 °F 78% 30.09 in 5.0 mi South 8.1 mph - 0.04 in Rain Light Freezing Rain
3:29 AM 30.9 °F 22.2 °F 23.0 °F 72% 30.04 in 9.0 mi SSE 10.4 mph - 0.01 in   Overcast
3:54 AM 30.0 °F 21.1 °F 23.0 °F 75% 30.03 in 7.0 mi South 10.4 mph - 0.01 in   Overcast
4:23 AM 30.0 °F 20.0 °F 24.1 °F 79% 29.98 in 4.0 mi SSE 12.7 mph - 0.00 in Rain Light Freezing Rain
4:31 AM 30.0 °F 21.1 °F 24.1 °F 79% 30.00 in 3.0 mi SSE 10.4 mph 18.4 mph 0.00 in   Overcast
4:51 AM 30.2 °F 22.6 °F 24.8 °F 80% 29.99 in 2.5 mi South 8.1 mph - 0.00 in Rain Light Freezing Rain
4:54 AM 30.0 °F 22.4 °F 25.0 °F 82% 30.00 in 2.5 mi SE 8.1 mph - 0.00 in Rain Light Freezing Rain
5:12 AM 28.9 °F 20.4 °F 26.1 °F 89% 29.96 in 2.5 mi SSE 9.2 mph - 0.00 in   Overcast
5:19 AM 28.9 °F 20.4 °F 26.1 °F 89% 29.95 in 3.0 mi SSE 9.2 mph - 0.00 in   Overcast
5:45 AM 30.0 °F 19.5 °F 26.1 °F 85% 29.93 in 3.0 mi South 13.8 mph - 0.00 in   Overcast
5:54 AM 30.0 °F 19.5 °F 25.0 °F 82% 29.94 in 2.5 mi SSE 13.8 mph - 0.00 in Rain Light Freezing Rain
6:14 AM 30.0 °F 20.0 °F 26.1 °F 85% 29.90 in 3.0 mi South 12.7 mph - 0.00 in Rain Light Freezing Rain
6:22 AM 30.0 °F 20.5 °F 26.1 °F 85% 29.89 in 3.0 mi SSE 11.5 mph 21.9 mph 0.00 in   Overcast
6:54 AM 30.0 °F 19.1 °F 26.1 °F 85% 29.90 in 3.0 mi South 15.0 mph - 0.00 in   Overcast
7:04 AM 30.0 °F 18.7 °F 27.0 °F 88% 29.89 in 2.0 mi South 16.1 mph - 0.00 in Rain Light Freezing Rain
7:08 AM 30.0 °F 19.5 °F 27.0 °F 88% 29.88 in 1.5 mi South 13.8 mph - 0.00 in Snow Light Snow
7:15 AM 30.0 °F 18.7 °F 27.0 °F 88% 29.86 in 1.0 mi South 16.1 mph - 0.00 in Snow Light Snow
7:42 AM 30.0 °F 18.7 °F 27.0 °F 88% 29.83 in 1.5 mi South 16.1 mph - 0.00 in Rain Light Freezing Rain
7:54 AM 30.0 °F 18.3 °F 27.0 °F 88% 29.83 in 1.8 mi South 17.3 mph - 0.00 in Rain Light Freezing Rain
8:12 AM 30.9 °F 18.7 °F 28.0 °F 89% 29.76 in 1.2 mi South 19.6 mph 26.5 mph 0.01 in Rain Light Freezing Rain
8:24 AM 30.9 °F 19.1 °F 28.0 °F 89% 29.78 in 1.5 mi South 18.4 mph 33.4 mph 0.01 in Rain Light Freezing Rain
8:28 AM 30.9 °F 18.4 °F 28.0 °F 89% 29.78 in 1.5 mi South 20.7 mph 33.4 mph 0.01 in   Overcast
8:44 AM 32.0 °F 21.2 °F 28.9 °F 88% 29.77 in 1.2 mi South 16.1 mph - 0.01 in   Overcast
8:54 AM 32.0 °F 20.1 °F 28.9 °F 88% 29.78 in 1.0 mi South 19.6 mph 25.3 mph 0.01 in Rain Light Freezing Rain
9:22 AM 33.1 °F 21.9 °F 30.0 °F 89% 29.75 in 1.0 mi South 18.4 mph - 0.00 in   Overcast
9:47 AM 33.1 °F 23.4 °F 30.0 °F 89% 29.75 in 1.2 mi South 13.8 mph - 0.01 in Rain Light Freezing Rain
9:54 AM 33.1 °F 22.2 °F 30.9 °F 92% 29.76 in 1.2 mi SSW 17.3 mph - 0.01 in Rain Light Freezing Rain
10:01 AM 33.1 °F 22.6 °F 30.9 °F 92% 29.74 in 1.2 mi SSW 16.1 mph - 0.00 in   Overcast
10:49 AM 33.8 °F 23.9 °F 30.2 °F 87% 29.74 in 0.8 mi SSW 15.0 mph - 0.00 in   Overcast
10:54 AM 34.0 °F 23.8 °F 30.9 °F 89% 29.76 in 0.8 mi SSW 16.1 mph - 0.00 in   Overcast
11:03 AM 34.0 °F 24.6 °F 30.9 °F 89% 29.74 in 1.0 mi SW 13.8 mph - N/A   Overcast
11:29 AM 34.0 °F 24.2 °F 32.0 °F 92% 29.73 in 0.8 mi SSW 15.0 mph - 0.00 in   Overcast
11:54 AM 35.1 °F 26.4 °F 32.0 °F 89% 29.75 in 0.8 mi SW 12.7 mph - 0.00 in   Overcast
12:01 PM 35.1 °F 25.5 °F 32.0 °F 89% 29.73 in 1.0 mi SW 15.0 mph - N/A   Overcast
12:39 PM 36.0 °F 26.7 °F 33.1 °F 89% 29.72 in 1.5 mi WSW 15.0 mph - N/A   Overcast
12:54 PM 36.0 °F 28.0 °F 33.1 °F 89% 29.74 in 1.5 mi SW 11.5 mph - N/A   Overcast
1:14 PM 37.0 °F 29.8 °F 34.0 °F 89% 29.71 in 2.0 mi WSW 10.4 mph - N/A   Overcast
1:29 PM 37.0 °F 28.9 °F 34.0 °F 89% 29.73 in 3.0 mi WSW 12.7 mph - N/A   Overcast
1:43 PM 37.9 °F 30.5 °F 35.1 °F 89% 29.72 in 4.0 mi West 11.5 mph - N/A   Overcast
1:54 PM 37.9 °F 30.5 °F 35.1 °F 89% 29.73 in 6.0 mi West 11.5 mph - N/A   Overcast
2:54 PM 39.0 °F 30.6 °F 34.0 °F 82% 29.76 in 9.0 mi West 15.0 mph 23.0 mph N/A   Overcast
3:44 PM 37.9 °F 29.2 °F 33.1 °F 83% 29.79 in 10.0 mi West 15.0 mph - N/A   Overcast
3:54 PM 37.9 °F 30.5 °F 33.1 °F 83% 29.79 in 10.0 mi West 11.5 mph - N/A   Overcast
4:16 PM 37.9 °F 30.9 °F 33.1 °F 83% 29.79 in 10.0 mi West 10.4 mph - N/A   Overcast
4:54 PM 37.9 °F 30.9 °F 32.0 °F 79% 29.81 in 10.0 mi West 10.4 mph - N/A   Overcast
5:54 PM 37.0 °F 31.0 °F 30.0 °F 76% 29.82 in 10.0 mi WNW 8.1 mph - N/A   Overcast
6:54 PM 37.0 °F 31.0 °F 30.0 °F 76% 29.89 in 10.0 mi WNW 8.1 mph - N/A   Overcast
7:11 PM 36.0 °F 29.0 °F 30.0 °F 79% 29.87 in 10.0 mi WNW 9.2 mph - N/A   Scattered Clouds
7:54 PM 36.0 °F 29.6 °F 27.0 °F 70% 29.91 in 10.0 mi WNW 8.1 mph 20.7 mph N/A   Clear
8:54 PM 35.6 °F 29.2 °F 26.6 °F 70% 29.92 in 10.0 mi WNW 8.1 mph - N/A   Clear
9:54 PM 33.8 °F 27.7 °F 26.6 °F 75% 29.91 in 9.0 mi NW 6.9 mph - N/A   Clear
10:54 PM 34.0 °F 27.2 °F 26.1 °F 73% 29.94 in 9.0 mi NW 8.1 mph - N/A   Mostly Cloudy
11:54 PM 30.0 °F 22.4 °F 23.0 °F 75% 29.95 in 10.0 mi NNW 8.1 mph 20.7 mph N/A   Overcast